Regional Weather Roundup
Issued by NWS

Home | Current Version | Previous Version | Graphics & Text | Print | Product List | Glossary On
Versions: 1 2 3 4 5 6 7 8 9 10 11 12 13 14 15 16 17 18 19 20 21 22 23 24 25 26 27 28 29 30 31 32 33 34 35 36 37 38 39 40 41 42 43 44 45 46 47 48 49 50
000
ASUS43 KLOT 022110
RWRIL

ILLINOIS REGIONAL WEATHER ROUNDUP
NATIONAL WEATHER SERVICE CHICAGO/ROMEOVILLE IL
400 PM CDT TUE SEP 02 2014

NOTE: "FAIR" INDICATES FEW OR NO CLOUDS BELOW 12,000 FEET WITH NO
SIGNIFICANT WEATHER AND/OR OBSTRUCTIONS TO VISIBILITY.

* THESE STATIONS ARE NOT UNDER NWS QUALITY CONTROL. THEY ALSO MAY NOT
  REPORT WEATHER SUCH AS PRECIPITATION OR FOG.

ILZ001-002-007-009-015-016-024-022200-
NORTHWEST ILLINOIS

CITY           SKY/WX    TMP DP  RH WIND       PRES   REMARKS
MOLINE         MOSUNNY   79  61  53 W12       29.93S HX  80
STERLING*      PTSUNNY   82  63  51 W15       29.93S HX  83
SAVANNA*       SUNNY     80  59  47 W12       29.91F HX  81
$$

ILZ003-004-008-010-011-017-018-022200-
NORTH CENTRAL ILLINOIS

CITY           SKY/WX    TMP DP  RH WIND       PRES   REMARKS
ROCKFORD       MOSUNNY   79  60  52 W12       29.93S HX  80
FREEPORT*      PTSUNNY   76  65  69 W7        29.95S
ROCHELLE*      PTSUNNY   78  59  53 W10       29.93S
DE KALB*       MOSUNNY   76  59  54 W13       29.93S
PERU*          MOSUNNY   81  62  51 SW10      29.93S HX  82
$$

ILZ005-006-012>014-019>023-022200-
NORTHEAST ILLINOIS

CITY           SKY/WX    TMP DP  RH WIND       PRES   REMARKS
CHICAGO-OHARE  MOSUNNY   81  55  40 NW13      29.90S HX  81
CHICAGO-MIDWAY MOSUNNY   84  54  35 W15G22    29.90S HX  83
AURORA         SUNNY     80  58  46 W12       29.92F HX  80
LANSING*         N/A    N/A N/A N/A MISG        N/A
JOLIET*        MOSUNNY   81  58  45 W9        29.92F HX  81
WAUKEGAN       SUNNY     79  52  38 W8        29.90S
DUPAGE AIRPORT SUNNY     82  57  42 W7        29.91F HX  82
KANKAKEE*      SUNNY     81  64  57 W9        29.92F HX  82
WHEELING       MOSUNNY   83  56  39 W9        29.91F HX  82
MORRIS*        MOSUNNY   81  63  54 W12       29.92S HX  82
ROMEOVILLE*    MOSUNNY   80  60  49 W9        29.91F HX  81
NORTHERLY ISL    N/A     74  67  78 E5          N/A
$$

LMZ740>746-022200-
SOUTHERN LAKE MICHIGAN

STATION/POSITION SKY/WX   TEMP    WIND        PRES    VSBY  WAVE
                          AIR SEA DIR/SP/G                  HT/PER
                          (F)     (DEG/KT/KT) (MB)    (MI)  (FT/S)
SOUTHERN BUOY              72 73  180/  4/  4 1012.5F         0
WAUKEGAN HARBOR            80     280/  8/ 15   N/A
HARRISON CRIB              73      70/  9/ 10   N/A
BURNHAM HARBOR             74      90/  7/ 12   N/A
CALUMET HARBOR             74      50/  8/ 10 1011.3S
MICHIGAN CITY              73      30/  6/  7   N/A
MICHIGAN CITY 6N           74 74   50/  6/  8   N/A           0
ST. JOSEPH                 73 72  200/  2/  2   N/A           1
$$

ILZ025>027-034>036-040-047-049-050-058-095>099-022200-
WEST-CENTRAL ILLINOIS

CITY           SKY/WX    TMP DP  RH WIND       PRES   REMARKS
QUINCY         PTSUNNY   82  64  54 W9        29.95F HX  83
GALESBURG*     SUNNY     83  64  53 W9        29.94F HX  84
MACOMB*        MOSUNNY   80  63  55 W9        29.96F HX  82
JACKSONVILLE*  PTSUNNY   83  67  59 W9        29.95F HX  86
PITTSFIELD*    PTSUNNY   81  65  57 W6        29.96F HX  83
$$

ILZ028>032-037-038-041>044-048-051>054-059>061-022200-
CENTRAL ILLINOIS

CITY           SKY/WX    TMP DP  RH WIND       PRES   REMARKS
PONTIAC        SUNNY     82  63  51 W9        29.93S HX  83
DECATUR        PTSUNNY   80  66  62 W7        29.95F HX  82
PEORIA         MOSUNNY   84  62  47 W8        29.93F HX  85
LACON*         MOSUNNY   82  60  48 W9        29.92F HX  82
LINCOLN*       MOSUNNY   84  64  50 W6        29.90F HX  85
SPRINGFIELD    PTSUNNY   83  67  58 VRB5      29.94F HX  85
TAYLORVILLE    PTSUNNY   77  68  73 W3        29.95F
$$

ILZ033-039-045-046-055>057-062-063-022200-
EAST-CENTRAL ILLINOIS

CITY           SKY/WX    TMP DP  RH WIND       PRES   REMARKS
CHAMPAIGN      PTSUNNY   80  68  66 W9        29.95S HX  83
DANVILLE*      PTSUNNY   78  68  71 SW10      29.90F HX  81
RANTOUL*       PTSUNNY   81  65  57 W10G16    29.94F HX  83
MATTOON        PTSUNNY   79  67  66 W8        29.95F HX  81
PARIS*         PTSUNNY   79  69  70 W8        29.96S HX  82
$$

ILZ079-100>102-022200-
SOUTHWEST ILLINOIS

CITY           SKY/WX    TMP DP  RH WIND       PRES   REMARKS
ALTON          PTSUNNY   81  70  69 NW9       29.96  HX  84
BELLEVILLE     PTSUNNY   82  71  69 W7        29.94F HX  85
CAHOKIA*       MOSUNNY   81  70  69 NW8       29.91F HX  84
SPARTA*        CLOUDY    78  71  78 W3        29.97F HX  80
$$

ILZ064>066-069>071-074>076-080>082-084>086-088>090-092>094-022200-
SOUTH-CENTRAL ILLINOIS

CITY           SKY/WX    TMP DP  RH WIND       PRES   REMARKS
CARBONDALE     CLOUDY    82  68  62 NW8       29.95F HX  85
CAIRO*         CLOUDY    83  69  62 W6        29.94F HX  86
EFFINGHAM*     MOSUNNY   80  65  59 W8        29.95F HX  82
MARION         PTSUNNY   82  70  65 NW9       29.96F HX  86
MT. VERNON     PTSUNNY   79  70  73 N6        29.95F HX  81
CENTRALIA*     PTSUNNY   80  69  67 NW8       29.95F HX  83
SALEM*         MOSUNNY   81  72  75 NW8       29.95F HX  85
METROPOLIS*    CLOUDY    83  71  66 W6        29.94F HX  87
$$

ILZ067-068-072-073-078-083-087-091-022200-
SOUTHEAST ILLINOIS

CITY           SKY/WX    TMP DP  RH WIND       PRES   REMARKS
LAWRENCEVILLE  PTSUNNY   79  70  74 NW10      29.94F HX  82
FLORA*         PTSUNNY   79  69  71 NW6       29.96F HX  82
FAIRFIELD*     CLOUDY    82  75  78 NW6       29.93F HX  89
HARRISBURG*    CLOUDY    82  69  66 NW7       29.95F HX  85
ROBINSON*      PTSUNNY   81  73  76 W9        29.95F HX  85
CARMI*         PTSUNNY   82  73  74 W13       29.94S HX  87
$$

ABBREVIATIONS USED IN REMARKS
   TC - TEMPERATURE IN CELSIUS
  WCI - WIND CHILL INDEX
   HX - HEAT INDEX
  VSB - VISIBILITY
$$




USA.gov is the U.S. government's official web portal to all federal, state and local government web resources and services.